Location: Petrozavodsk
(61.7955°N, 34.3748°E)
Time: 02:26:28
(UTC+03:00)

Envisat - Pass Details

Date: 28 March 2023
Orbit: 763 x 765 km, 98.2° (Epoch: 28 May)

Event Time Altitude Azimuth Distance (km) Brightness Sun altitude
Rises 03:54:57 0° 19° (NNE) 3,250 7.3 -16.3°
Reaches altitude 10° 03:57:34 10° 31° (NNE) 2,319 6.6 -16.0°
Maximum altitude 04:02:00 29° 91° (E) 1,386 4.9 -15.6°
Drops below altitude 10° 04:06:24 10° 151° (SSE) 2,304 5.4 -15.2°
Sets 04:08:59 0° 163° (SSE) 3,226 6.0 -15.0°
